Location: Pl�tzky
(52.0521°N, 11.8020°E)
Time: 09:16:10
(UTC+00:00)

NOSS 3-1 (A) - Pass Details

Date: 22 November 2019
Orbit: 769 x 1443 km, 63.4° (Epoch: 09 December)

Event Time Altitude Azimuth Distance (km) Brightness Sun altitude
Rises 16:38:15 0° 226° (SW) 3,345 7.5 -12.7°
Reaches altitude 10° 16:40:33 10° 227° (SW) 2,471 6.7 -13.0°
Maximum altitude 16:46:16 84° 316° (NW) 950 3.5 -13.9°
Enters shadow 16:51:56 15° 45° (NE) 2,495 5.1 -14.7°
